Time,TemperatureF,DewpointF,PressureIn,WindDirection,WindDirectionDegrees,WindSpeedMPH,WindSpeedGustMPH,Humidity,HourlyPrecipIn,Conditions,Clouds,dailyrainin,SoftwareType,DateUTC
2013-08-10 00:04:00,74.3,73.0,30.04,SW,222,0.0,-999.0,94,-99.99,,,0.00,weatherlink.com 1.10,2013-08-10 04:04:00,
2013-08-10 00:18:00,73.9,72.0,30.04,SW,222,0.0,-999.0,95,-99.99,,,0.00,weatherlink.com 1.10,2013-08-10 04:18:00,
2013-08-10 00:33:00,73.8,72.0,30.05,SW,222,0.0,-999.0,95,-99.99,,,0.00,weatherlink.com 1.10,2013-08-10 04:33:00,
2013-08-10 00:48:00,73.7,72.0,30.04,SW,222,0.0,-999.0,95,-99.99,,,0.00,weatherlink.com 1.10,2013-08-10 04:48:00,
2013-08-10 01:02:00,73.7,72.0,30.05,SW,222,0.0,-999.0,95,-99.99,,,0.00,weatherlink.com 1.10,2013-08-10 05:02:00,
2013-08-10 01:18:00,73.5,72.0,30.05,SW,222,0.0,-999.0,95,-99.99,,,0.00,weatherlink.com 1.10,2013-08-10 05:18:00,
2013-08-10 01:33:00,73.2,72.0,30.05,SW,222,0.0,-999.0,95,-99.99,,,0.00,weatherlink.com 1.10,2013-08-10 05:33:00,
2013-08-10 01:48:00,73.0,72.0,30.04,SW,222,0.0,-999.0,95,-99.99,,,0.00,weatherlink.com 1.10,2013-08-10 05:48:00,
2013-08-10 02:03:00,72.9,71.0,30.04,SW,222,0.0,-999.0,95,-99.99,,,0.00,weatherlink.com 1.10,2013-08-10 06:03:00,
2013-08-10 02:17:00,72.4,71.0,30.04,SW,222,0.0,-999.0,95,-99.99,,,0.00,weatherlink.com 1.10,2013-08-10 06:17:00,
2013-08-10 02:32:00,72.2,71.0,30.04,SW,222,0.0,-999.0,95,-99.99,,,0.00,weatherlink.com 1.10,2013-08-10 06:32:00,
2013-08-10 02:47:00,72.4,71.0,30.04,SW,222,0.0,-999.0,95,-99.99,,,0.00,weatherlink.com 1.10,2013-08-10 06:47:00,
2013-08-10 03:02:00,72.4,71.0,30.05,SW,222,0.0,-999.0,95,-99.99,,,0.00,weatherlink.com 1.10,2013-08-10 07:02:00,
2013-08-10 03:17:00,72.5,71.0,30.04,SW,222,0.0,-999.0,96,-99.99,,,0.01,weatherlink.com 1.10,2013-08-10 07:17:00,
2013-08-10 03:32:00,72.6,71.0,30.05,SW,222,0.0,-999.0,96,-99.99,,,0.06,weatherlink.com 1.10,2013-08-10 07:32:00,
2013-08-10 03:47:00,72.6,71.0,30.05,SW,222,0.0,-999.0,96,-99.99,,,0.06,weatherlink.com 1.10,2013-08-10 07:47:00,
2013-08-10 04:02:00,72.7,72.0,30.05,SW,222,0.0,-999.0,96,-99.99,,,0.06,weatherlink.com 1.10,2013-08-10 08:02:00,
2013-08-10 04:17:00,72.6,71.0,30.05,SW,222,0.0,-999.0,96,-99.99,,,0.06,weatherlink.com 1.10,2013-08-10 08:17:00,
2013-08-10 04:33:00,72.6,71.0,30.05,SW,222,0.0,-999.0,96,-99.99,,,0.06,weatherlink.com 1.10,2013-08-10 08:33:00,
2013-08-10 04:48:00,72.5,71.0,30.05,SW,222,0.0,-999.0,96,-99.99,,,0.06,weatherlink.com 1.10,2013-08-10 08:48:00,
2013-08-10 05:02:00,72.5,71.0,30.05,SW,222,0.0,-999.0,96,-99.99,,,0.06,weatherlink.com 1.10,2013-08-10 09:02:00,
2013-08-10 05:17:00,72.4,71.0,30.05,SW,222,0.0,-999.0,96,-99.99,,,0.06,weatherlink.com 1.10,2013-08-10 09:17:00,
2013-08-10 05:32:00,72.3,71.0,30.05,SW,222,0.0,-999.0,96,-99.99,,,0.06,weatherlink.com 1.10,2013-08-10 09:32:00,
2013-08-10 05:47:00,72.3,71.0,30.07,SW,222,0.0,-999.0,96,-99.99,,,0.06,weatherlink.com 1.10,2013-08-10 09:47:00,
2013-08-10 06:03:00,72.3,71.0,30.07,SW,222,0.0,-999.0,96,-99.99,,,0.06,weatherlink.com 1.10,2013-08-10 10:03:00,
2013-08-10 06:18:00,72.2,71.0,30.06,SW,222,0.0,-999.0,96,-99.99,,,0.06,weatherlink.com 1.10,2013-08-10 10:18:00,
2013-08-10 06:33:00,72.1,71.0,30.07,SW,222,0.0,-999.0,96,-99.99,,,0.06,weatherlink.com 1.10,2013-08-10 10:33:00,
2013-08-10 06:48:00,71.8,71.0,30.07,SW,222,0.0,-999.0,96,-99.99,,,0.06,weatherlink.com 1.10,2013-08-10 10:48:00,
2013-08-10 07:03:00,71.7,71.0,30.07,SW,222,0.0,-999.0,96,-99.99,,,0.06,weatherlink.com 1.10,2013-08-10 11:03:00,
2013-08-10 07:18:00,71.2,70.0,30.07,SW,222,0.0,-999.0,96,-99.99,,,0.06,weatherlink.com 1.10,2013-08-10 11:18:00,
2013-08-10 07:33:00,71.3,70.0,30.07,SW,222,0.0,-999.0,96,-99.99,,,0.06,weatherlink.com 1.10,2013-08-10 11:33:00,
2013-08-10 07:48:00,71.6,70.0,30.08,SW,222,0.0,-999.0,96,-99.99,,,0.06,weatherlink.com 1.10,2013-08-10 11:48:00,
2013-08-10 08:03:00,71.7,71.0,30.08,SW,222,0.0,-999.0,96,-99.99,,,0.06,weatherlink.com 1.10,2013-08-10 12:03:00,
2013-08-10 08:18:00,72.5,71.0,30.09,SW,222,0.0,-999.0,96,-99.99,,,0.06,weatherlink.com 1.10,2013-08-10 12:18:00,
2013-08-10 08:33:00,72.8,72.0,30.09,SW,222,2.0,-999.0,96,-99.99,,,0.06,weatherlink.com 1.10,2013-08-10 12:33:00,
2013-08-10 08:48:00,73.0,72.0,30.09,SW,222,3.0,-999.0,96,-99.99,,,0.06,weatherlink.com 1.10,2013-08-10 12:48:00,
2013-08-10 09:03:00,73.1,72.0,30.09,SW,222,1.0,-999.0,96,-99.99,,,0.06,weatherlink.com 1.10,2013-08-10 13:03:00,
2013-08-10 09:18:00,74.1,73.0,30.10,SW,222,0.0,-999.0,96,-99.99,,,0.06,weatherlink.com 1.10,2013-08-10 13:18:00,
2013-08-10 09:33:00,74.2,72.0,30.10,SW,222,0.0,-999.0,94,-99.99,,,0.06,weatherlink.com 1.10,2013-08-10 13:33:00,
2013-08-10 09:48:00,74.4,73.0,30.10,SW,222,2.0,-999.0,94,-99.99,,,0.06,weatherlink.com 1.10,2013-08-10 13:48:00,
2013-08-10 10:03:00,74.6,73.0,30.10,SW,222,2.0,-999.0,94,-99.99,,,0.06,weatherlink.com 1.10,2013-08-10 14:03:00,
2013-08-10 10:18:00,75.5,73.0,30.10,SW,222,0.0,-999.0,92,-99.99,,,0.06,weatherlink.com 1.10,2013-08-10 14:18:00,
2013-08-10 10:33:00,76.0,73.0,30.10,SW,222,0.0,-999.0,91,-99.99,,,0.06,weatherlink.com 1.10,2013-08-10 14:33:00,
2013-08-10 10:48:00,76.0,73.0,30.11,SW,222,0.0,-999.0,91,-99.99,,,0.06,weatherlink.com 1.10,2013-08-10 14:48:00,
2013-08-10 11:03:00,76.1,73.0,30.11,SW,222,0.0,-999.0,91,-99.99,,,0.06,weatherlink.com 1.10,2013-08-10 15:03:00,
2013-08-10 11:18:00,76.8,73.0,30.12,SW,222,0.0,-999.0,89,-99.99,,,0.06,weatherlink.com 1.10,2013-08-10 15:18:00,
2013-08-10 11:33:00,77.2,74.0,30.11,SW,222,0.0,-999.0,90,-99.99,,,0.06,weatherlink.com 1.10,2013-08-10 15:33:00,
2013-08-10 11:48:00,77.7,74.0,30.11,SW,221,0.0,-999.0,88,-99.99,,,0.06,weatherlink.com 1.10,2013-08-10 15:48:00,
2013-08-10 12:03:00,77.8,74.0,30.12,SW,221,0.0,-999.0,88,-99.99,,,0.06,weatherlink.com 1.10,2013-08-10 16:03:00,
2013-08-10 12:18:00,78.0,74.0,30.12,SW,216,0.0,-999.0,87,-99.99,,,0.06,weatherlink.com 1.10,2013-08-10 16:18:00,
2013-08-10 12:33:00,78.2,75.0,30.12,NNW,337,0.0,-999.0,89,-99.99,,,0.06,weatherlink.com 1.10,2013-08-10 16:33:00,
2013-08-10 12:48:00,78.4,75.0,30.11,NNW,337,0.0,-999.0,89,-99.99,,,0.06,weatherlink.com 1.10,2013-08-10 16:48:00,
2013-08-10 13:03:00,78.5,75.0,30.12,NNW,337,0.0,-999.0,88,-99.99,,,0.06,weatherlink.com 1.10,2013-08-10 17:03:00,
2013-08-10 13:18:00,79.1,74.0,30.11,WSW,251,1.0,-999.0,85,-99.99,,,0.06,weatherlink.com 1.10,2013-08-10 17:18:00,
2013-08-10 13:33:00,79.2,75.0,30.10,WSW,255,0.0,-999.0,86,-99.99,,,0.06,weatherlink.com 1.10,2013-08-10 17:33:00,
2013-08-10 13:48:00,79.5,75.0,30.08,WSW,247,2.0,-999.0,85,-99.99,,,0.06,weatherlink.com 1.10,2013-08-10 17:48:00,
2013-08-10 14:03:00,79.6,75.0,30.08,WSW,247,2.0,-999.0,86,-99.99,,,0.06,weatherlink.com 1.10,2013-08-10 18:03:00,
2013-08-10 14:18:00,80.9,75.0,30.10,WSW,247,0.0,-999.0,81,-99.99,,,0.06,weatherlink.com 1.10,2013-08-10 18:18:00,
2013-08-10 14:33:00,81.4,76.0,30.10,WSW,246,0.0,-999.0,83,-99.99,,,0.06,weatherlink.com 1.10,2013-08-10 18:33:00,
2013-08-10 14:48:00,82.3,74.0,30.09,WNW,285,0.0,-999.0,77,-99.99,,,0.06,weatherlink.com 1.10,2013-08-10 18:48:00,
2013-08-10 15:03:00,82.2,74.0,30.09,WNW,285,0.0,-999.0,76,-99.99,,,0.06,weatherlink.com 1.10,2013-08-10 19:03:00,
2013-08-10 15:18:00,81.9,75.0,30.07,WNW,285,0.0,-999.0,79,-99.99,,,0.07,weatherlink.com 1.10,2013-08-10 19:18:00,
2013-08-10 15:33:00,82.6,76.0,30.07,WNW,286,0.0,-999.0,79,-99.99,,,0.07,weatherlink.com 1.10,2013-08-10 19:33:00,
2013-08-10 15:48:00,82.4,74.0,30.07,WNW,285,4.0,-999.0,76,-99.99,,,0.07,weatherlink.com 1.10,2013-08-10 19:48:00,
2013-08-10 16:03:00,82.3,74.0,30.07,WNW,285,1.0,-999.0,76,-99.99,,,0.07,weatherlink.com 1.10,2013-08-10 20:03:00,
2013-08-10 16:18:00,82.4,74.0,30.05,WNW,285,2.0,-999.0,76,-99.99,,,0.07,weatherlink.com 1.10,2013-08-10 20:18:00,
2013-08-10 16:33:00,83.6,74.0,30.05,WNW,284,2.0,-999.0,73,-99.99,,,0.07,weatherlink.com 1.10,2013-08-10 20:33:00,
2013-08-10 16:48:00,83.6,75.0,30.05,WNW,284,0.0,-999.0,74,-99.99,,,0.07,weatherlink.com 1.10,2013-08-10 20:48:00,
2013-08-10 17:03:00,83.6,75.0,30.05,WNW,284,0.0,-999.0,75,-99.99,,,0.07,weatherlink.com 1.10,2013-08-10 21:03:00,
2013-08-10 17:18:00,83.4,76.0,30.04,WNW,288,2.0,-999.0,77,-99.99,,,0.07,weatherlink.com 1.10,2013-08-10 21:18:00,
2013-08-10 17:33:00,80.7,75.0,30.05,WNW,296,4.0,-999.0,82,-99.99,,,0.18,weatherlink.com 1.10,2013-08-10 21:33:00,
2013-08-10 17:48:00,77.1,74.0,30.05,WNW,296,0.0,-999.0,89,-99.99,,,0.39,weatherlink.com 1.10,2013-08-10 21:48:00,
2013-08-10 18:03:00,76.8,73.0,30.06,WNW,296,0.0,-999.0,89,-99.99,,,0.40,weatherlink.com 1.10,2013-08-10 22:03:00,
2013-08-10 18:18:00,75.2,73.0,30.07,WNW,297,5.0,-999.0,92,-99.99,,,0.64,weatherlink.com 1.10,2013-08-10 22:18:00,
2013-08-10 18:33:00,74.0,72.0,30.07,NW,313,0.0,-999.0,93,-99.99,,,0.77,weatherlink.com 1.10,2013-08-10 22:33:00,
2013-08-10 18:48:00,73.8,72.0,30.06,NW,312,0.0,-999.0,94,-99.99,,,0.79,weatherlink.com 1.10,2013-08-10 22:48:00,
2013-08-10 19:03:00,73.8,72.0,30.06,NW,312,0.0,-999.0,94,-99.99,,,0.79,weatherlink.com 1.10,2013-08-10 23:03:00,
2013-08-10 19:18:00,74.2,73.0,30.07,NW,312,0.0,-999.0,95,-99.99,,,0.80,weatherlink.com 1.10,2013-08-10 23:18:00,
2013-08-10 19:33:00,74.4,73.0,30.07,NW,313,1.0,-999.0,95,-99.99,,,0.80,weatherlink.com 1.10,2013-08-10 23:33:00,
2013-08-10 19:48:00,74.0,72.0,30.07,NW,312,0.0,-999.0,94,-99.99,,,0.80,weatherlink.com 1.10,2013-08-10 23:48:00,
2013-08-10 20:03:00,73.9,72.0,30.07,NW,312,0.0,-999.0,94,-99.99,,,0.80,weatherlink.com 1.10,2013-08-11 00:03:00,
2013-08-10 20:18:00,74.0,73.0,30.08,NW,312,0.0,-999.0,95,-99.99,,,0.80,weatherlink.com 1.10,2013-08-11 00:18:00,
2013-08-10 20:33:00,73.9,72.0,30.08,NW,312,0.0,-999.0,95,-99.99,,,0.80,weatherlink.com 1.10,2013-08-11 00:33:00,
2013-08-10 20:48:00,73.8,72.0,30.08,NW,312,0.0,-999.0,95,-99.99,,,0.80,weatherlink.com 1.10,2013-08-11 00:48:00,
2013-08-10 21:03:00,73.8,72.0,30.08,NW,312,0.0,-999.0,95,-99.99,,,0.80,weatherlink.com 1.10,2013-08-11 01:03:00,
2013-08-10 21:18:00,73.5,72.0,30.08,NW,312,0.0,-999.0,95,-99.99,,,0.80,weatherlink.com 1.10,2013-08-11 01:18:00,
2013-08-10 21:33:00,73.2,72.0,30.09,NW,312,0.0,-999.0,95,-99.99,,,0.80,weatherlink.com 1.10,2013-08-11 01:33:00,
2013-08-10 21:48:00,73.0,72.0,30.09,NW,312,0.0,-999.0,95,-99.99,,,0.80,weatherlink.com 1.10,2013-08-11 01:48:00,
2013-08-10 22:04:00,73.0,72.0,30.09,NW,312,0.0,-999.0,95,-99.99,,,0.80,weatherlink.com 1.10,2013-08-11 02:04:00,
2013-08-10 22:18:00,73.0,72.0,30.09,NW,312,0.0,-999.0,95,-99.99,,,0.80,weatherlink.com 1.10,2013-08-11 02:18:00,
2013-08-10 22:33:00,72.9,71.0,30.10,NW,313,0.0,-999.0,95,-99.99,,,0.80,weatherlink.com 1.10,2013-08-11 02:33:00,
2013-08-10 22:48:00,72.9,71.0,30.10,NW,312,0.0,-999.0,95,-99.99,,,0.80,weatherlink.com 1.10,2013-08-11 02:48:00,
2013-08-10 23:03:00,72.8,71.0,30.09,NW,312,0.0,-999.0,95,-99.99,,,0.80,weatherlink.com 1.10,2013-08-11 03:03:00,
2013-08-10 23:17:00,72.3,71.0,30.10,NW,313,0.0,-999.0,95,-99.99,,,0.80,weatherlink.com 1.10,2013-08-11 03:17:00,
2013-08-10 23:32:00,72.4,71.0,30.10,NW,312,0.0,-999.0,95,-99.99,,,0.80,weatherlink.com 1.10,2013-08-11 03:32:00,
2013-08-10 23:47:00,72.7,72.0,30.10,NW,312,0.0,-999.0,96,-99.99,,,0.80,weatherlink.com 1.10,2013-08-11 03:47:00,